Time,TemperatureF,DewpointF,PressureIn,WindDirection,WindDirectionDegrees,WindSpeedMPH,WindSpeedGustMPH,Humidity,HourlyPrecipIn,Conditions,Clouds,dailyrainin,SolarRadiationWatts/m^2,SoftwareType,DateUTC
2013-07-21 00:00:00,78.0,72.4,30.10,SSE,158,0.0,1.0,83,0.00,,,0.01,0.00,VWS V14.01,2013-07-21 04:00:00,
2013-07-21 00:15:00,78.0,72.4,30.09,SSE,158,0.0,1.0,83,0.00,,,0.01,0.00,VWS V14.01,2013-07-21 04:15:00,
2013-07-21 00:30:00,78.2,73.0,30.09,SSE,158,0.0,2.0,84,0.00,,,0.01,0.00,VWS V14.01,2013-07-21 04:30:00,
2013-07-21 00:45:00,78.2,73.3,30.09,SSE,158,0.0,2.0,85,0.00,,,0.01,0.00,VWS V14.01,2013-07-21 04:45:00,
2013-07-21 01:00:00,78.2,73.7,30.09,SSE,158,0.0,0.0,86,0.00,,,0.00,0.00,VWS V14.01,2013-07-21 05:00:00,
2013-07-21 01:15:00,78.5,74.3,30.10,SSE,158,0.0,1.0,87,0.00,,,0.00,0.00,VWS V14.01,2013-07-21 05:15:00,
2013-07-21 01:30:00,78.9,74.4,30.09,SSE,158,0.0,2.0,86,0.00,,,0.00,0.00,VWS V14.01,2013-07-21 05:30:00,
2013-07-21 01:45:00,78.8,73.9,30.09,ESE,112,1.0,3.0,85,0.00,,,0.00,0.00,VWS V14.01,2013-07-21 05:45:00,
2013-07-21 02:00:00,78.8,74.3,30.09,NE,45,2.0,4.0,86,0.00,,,0.00,0.00,VWS V14.01,2013-07-21 06:00:00,
2013-07-21 02:15:00,78.4,73.9,30.09,NNE,22,0.0,3.0,86,0.00,,,0.00,0.00,VWS V14.01,2013-07-21 06:15:00,
2013-07-21 02:30:00,78.1,73.9,30.09,NNE,22,0.0,1.0,87,0.00,,,0.00,0.00,VWS V14.01,2013-07-21 06:30:00,
2013-07-21 02:45:00,78.1,74.6,30.09,NNE,22,0.0,1.0,89,0.00,,,0.00,0.00,VWS V14.01,2013-07-21 06:45:00,
2013-07-21 03:00:00,78.1,74.6,30.09,NNE,22,0.0,1.0,89,0.00,,,0.00,0.00,VWS V14.01,2013-07-21 07:00:00,
2013-07-21 03:15:00,78.1,74.6,30.09,NNE,22,0.0,1.0,89,0.00,,,0.00,0.00,VWS V14.01,2013-07-21 07:15:00,
2013-07-21 03:30:00,78.2,74.7,30.09,NNE,22,0.0,3.0,89,0.00,,,0.00,0.00,VWS V14.01,2013-07-21 07:30:00,
2013-07-21 03:45:00,78.2,74.7,30.09,NNE,22,0.0,2.0,89,0.00,,,0.00,0.00,VWS V14.01,2013-07-21 07:45:00,
2013-07-21 04:00:00,78.0,74.5,30.08,NNE,22,0.0,0.0,89,0.00,,,0.00,0.00,VWS V14.01,2013-07-21 08:00:00,
2013-07-21 04:15:00,77.8,74.6,30.08,NNE,22,0.0,0.0,90,0.00,,,0.00,0.00,VWS V14.01,2013-07-21 08:15:00,
2013-07-21 04:30:00,77.7,74.5,30.07,NNE,22,0.0,0.0,90,0.00,,,0.00,0.00,VWS V14.01,2013-07-21 08:30:00,
2013-07-21 04:45:00,77.7,74.9,30.07,NNE,22,0.0,0.0,91,0.00,,,0.00,0.00,VWS V14.01,2013-07-21 08:45:00,
2013-07-21 05:00:00,77.8,75.3,30.08,NNE,22,0.0,0.0,92,0.00,,,0.00,0.00,VWS V14.01,2013-07-21 09:00:00,
2013-07-21 05:15:00,78.0,75.5,30.08,NNE,22,0.0,0.0,92,0.00,,,0.00,0.00,VWS V14.01,2013-07-21 09:15:00,
2013-07-21 05:30:00,78.1,75.9,30.07,NNE,22,0.0,0.0,93,0.00,,,0.00,0.00,VWS V14.01,2013-07-21 09:30:00,
2013-07-21 05:45:00,77.9,75.7,30.07,NNE,22,0.0,0.0,93,0.00,,,0.00,0.00,VWS V14.01,2013-07-21 09:45:00,
2013-07-21 06:00:00,78.0,75.8,30.07,NNE,22,0.0,1.0,93,0.00,,,0.00,0.00,VWS V14.01,2013-07-21 10:00:00,
2013-07-21 06:15:00,78.0,75.8,30.07,NNE,22,0.0,1.0,93,0.00,,,0.00,0.00,VWS V14.01,2013-07-21 10:15:00,
2013-07-21 06:30:00,78.3,76.1,30.07,NNE,22,0.0,1.0,93,0.00,,,0.00,0.00,VWS V14.01,2013-07-21 10:30:00,
2013-07-21 06:45:00,78.3,76.4,30.09,NNE,22,0.0,0.0,94,0.00,,,0.00,,VWS V14.01,2013-07-21 10:45:00,
2013-07-21 07:00:00,78.3,76.1,30.08,NNE,22,0.0,0.0,93,0.00,,,0.00,0.00,VWS V14.01,2013-07-21 11:00:00,
2013-07-21 07:04:00,78.3,76.4,30.09,NNE,22,0.0,0.0,94,0.00,,,0.00,,VWS V14.01,2013-07-21 11:04:00,
2013-07-21 07:09:00,78.5,76.6,30.09,NNE,20,0.0,0.0,94,0.18,,,0.00,,VWS V14.01,2013-07-21 11:09:00,
2013-07-21 07:14:00,78.5,76.6,30.09,NNE,20,0.0,0.0,94,0.18,,,0.00,,VWS V14.01,2013-07-21 11:14:00,
2013-07-21 07:15:00,78.1,75.9,30.08,NNE,22,0.0,0.0,93,0.00,,,0.00,0.00,VWS V14.01,2013-07-21 11:15:00,
2013-07-21 07:19:00,78.6,76.7,30.09,NNE,20,0.0,0.0,94,0.18,,,0.00,,VWS V14.01,2013-07-21 11:19:00,
2013-07-21 07:24:00,78.6,76.7,30.09,NNE,20,0.0,0.0,94,0.18,,,0.00,,VWS V14.01,2013-07-21 11:24:00,
2013-07-21 07:29:00,78.7,76.8,30.09,NNE,20,0.0,1.0,94,0.18,,,0.00,,VWS V14.01,2013-07-21 11:29:00,
2013-07-21 07:30:00,78.2,76.3,30.09,NNE,22,0.0,0.0,94,0.00,,,0.00,0.00,VWS V14.01,2013-07-21 11:30:00,
2013-07-21 07:34:00,78.9,77.0,30.09,NNE,20,0.0,0.0,94,0.18,,,0.00,,VWS V14.01,2013-07-21 11:34:00,
2013-07-21 07:39:00,79.0,77.1,30.09,NNE,20,0.0,0.0,94,0.18,,,0.00,,VWS V14.01,2013-07-21 11:39:00,
2013-07-21 07:44:00,79.2,77.3,30.10,NNE,20,0.0,0.0,94,0.18,,,0.00,,VWS V14.01,2013-07-21 11:44:00,
2013-07-21 07:45:00,78.3,76.4,30.09,NNE,22,0.0,0.0,94,0.00,,,0.00,0.00,VWS V14.01,2013-07-21 11:45:00,
2013-07-21 07:49:00,79.4,77.5,30.10,NNE,20,1.0,1.0,94,0.18,,,0.00,,VWS V14.01,2013-07-21 11:49:00,
2013-07-21 07:54:00,79.5,77.3,30.11,NNE,20,0.0,1.0,93,0.18,,,0.00,,VWS V14.01,2013-07-21 11:54:00,
2013-07-21 07:59:00,79.7,77.5,30.11,NNE,20,0.0,2.0,93,0.18,,,0.00,,VWS V14.01,2013-07-21 11:59:00,
2013-07-21 08:04:00,79.9,77.4,30.11,NNE,20,0.0,2.0,92,0.00,,,0.00,,VWS V14.01,2013-07-21 12:04:00,
2013-07-21 08:09:00,80.1,77.6,30.12,NNE,20,0.0,2.0,92,0.00,,,0.00,,VWS V14.01,2013-07-21 12:09:00,
2013-07-21 08:14:00,80.2,77.7,30.12,NNE,20,0.0,2.0,92,0.00,,,0.00,,VWS V14.01,2013-07-21 12:14:00,
2013-07-21 08:15:00,78.5,76.6,30.09,NNE,20,0.0,0.0,94,0.18,,,0.00,0.00,VWS V14.01,2013-07-21 12:15:00,
2013-07-21 08:19:00,80.5,78.0,30.12,NNE,20,0.0,1.0,92,0.00,,,0.00,,VWS V14.01,2013-07-21 12:19:00,
2013-07-21 08:24:00,80.7,77.8,30.13,NNE,20,0.0,1.0,91,0.00,,,0.00,,VWS V14.01,2013-07-21 12:24:00,
2013-07-21 08:29:00,80.8,77.9,30.13,NNE,20,0.0,1.0,91,0.00,,,0.00,,VWS V14.01,2013-07-21 12:29:00,
2013-07-21 08:30:00,78.7,76.8,30.09,NNE,20,0.0,1.0,94,0.18,,,0.00,0.00,VWS V14.01,2013-07-21 12:30:00,
2013-07-21 08:34:00,81.1,77.9,30.13,NNE,20,1.0,1.0,90,0.00,,,0.00,,VWS V14.01,2013-07-21 12:34:00,
2013-07-21 08:39:00,81.3,78.1,30.13,NNE,20,1.0,2.0,90,0.00,,,0.00,,VWS V14.01,2013-07-21 12:39:00,
2013-07-21 08:44:00,81.5,77.9,30.13,NNE,20,0.0,3.0,89,0.00,,,0.00,,VWS V14.01,2013-07-21 12:44:00,
2013-07-21 08:45:00,79.2,77.3,30.10,NNE,20,0.0,0.0,94,0.18,,,0.00,0.00,VWS V14.01,2013-07-21 12:45:00,
2013-07-21 08:49:00,81.7,77.8,30.12,SSW,192,2.0,3.0,88,0.00,,,0.00,,VWS V14.01,2013-07-21 12:49:00,
2013-07-21 08:54:00,81.9,78.0,30.12,SSW,200,1.0,3.0,88,0.00,,,0.00,,VWS V14.01,2013-07-21 12:54:00,
2013-07-21 08:59:00,82.1,78.2,30.13,SSW,200,1.0,4.0,88,0.00,,,0.00,,VWS V14.01,2013-07-21 12:59:00,
2013-07-21 09:00:00,79.7,77.5,30.11,NNE,20,0.0,2.0,93,0.18,,,0.00,0.00,VWS V14.01,2013-07-21 13:00:00,
2013-07-21 09:04:00,82.2,77.9,30.13,SSW,200,1.0,4.0,87,0.00,,,0.00,,VWS V14.01,2013-07-21 13:04:00,
2013-07-21 09:09:00,82.4,78.1,30.13,SSW,200,3.0,4.0,87,0.00,,,0.00,,VWS V14.01,2013-07-21 13:09:00,
2013-07-21 09:14:00,82.6,78.0,30.13,SSW,200,1.0,4.0,86,0.00,,,0.00,,VWS V14.01,2013-07-21 13:14:00,
2013-07-21 09:15:00,80.3,77.8,30.12,NNE,20,0.0,2.0,92,0.00,,,0.00,0.00,VWS V14.01,2013-07-21 13:15:00,
2013-07-21 09:19:00,82.8,78.2,30.13,SSW,200,2.0,2.0,86,0.00,,,0.00,,VWS V14.01,2013-07-21 13:19:00,
2013-07-21 09:24:00,82.8,78.2,30.13,SSW,200,2.0,3.0,86,0.00,,,0.00,,VWS V14.01,2013-07-21 13:24:00,
2013-07-21 09:29:00,82.9,78.3,30.13,SSW,201,2.0,4.0,86,0.00,,,0.00,,VWS V14.01,2013-07-21 13:29:00,
2013-07-21 09:30:00,80.9,78.0,30.13,NNE,20,0.0,1.0,91,0.00,,,0.00,0.00,VWS V14.01,2013-07-21 13:30:00,
2013-07-21 09:34:00,83.1,78.5,30.13,SSW,201,2.0,3.0,86,0.00,,,0.00,,VWS V14.01,2013-07-21 13:34:00,
2013-07-21 09:39:00,83.4,78.8,30.13,SSW,201,0.0,3.0,86,0.00,,,0.00,,VWS V14.01,2013-07-21 13:39:00,
2013-07-21 09:44:00,83.7,78.7,30.13,SE,129,0.0,3.0,85,0.00,,,0.00,,VWS V14.01,2013-07-21 13:44:00,
2013-07-21 09:45:00,81.5,77.9,30.13,NNE,20,1.0,3.0,89,0.00,,,0.00,0.00,VWS V14.01,2013-07-21 13:45:00,
2013-07-21 09:49:00,84.0,78.7,30.13,SE,129,1.0,2.0,84,0.00,,,0.00,,VWS V14.01,2013-07-21 13:49:00,
2013-07-21 09:54:00,84.2,78.8,30.13,SE,130,0.0,2.0,84,0.00,,,0.00,,VWS V14.01,2013-07-21 13:54:00,
2013-07-21 09:59:00,84.2,78.5,30.13,SSE,150,1.0,3.0,83,0.00,,,0.00,,VWS V14.01,2013-07-21 13:59:00,
2013-07-21 10:00:00,82.1,78.2,30.13,SSW,200,1.0,4.0,88,0.00,,,0.00,0.00,VWS V14.01,2013-07-21 14:00:00,
2013-07-21 10:04:00,84.1,78.4,30.14,South,177,1.0,3.0,83,0.00,,,0.00,,VWS V14.01,2013-07-21 14:04:00,
2013-07-21 10:09:00,84.2,78.5,30.14,South,177,0.0,3.0,83,0.00,,,0.00,,VWS V14.01,2013-07-21 14:09:00,
2013-07-21 10:14:00,84.5,78.8,30.14,SE,130,4.0,4.0,83,0.00,,,0.00,,VWS V14.01,2013-07-21 14:14:00,
2013-07-21 10:15:00,82.6,78.0,30.13,SSW,200,1.0,4.0,86,0.00,,,0.00,0.00,VWS V14.01,2013-07-21 14:15:00,
2013-07-21 10:19:00,84.6,78.5,30.14,South,171,4.0,4.0,82,0.00,,,0.00,,VWS V14.01,2013-07-21 14:19:00,
2013-07-21 10:24:00,84.3,78.2,30.14,South,176,1.0,5.0,82,0.00,,,0.00,,VWS V14.01,2013-07-21 14:24:00,
2013-07-21 10:29:00,84.2,78.1,30.14,South,177,1.0,5.0,82,0.00,,,0.00,,VWS V14.01,2013-07-21 14:29:00,
2013-07-21 10:30:00,82.9,77.9,30.13,SSW,201,0.0,4.0,85,0.00,,,0.00,0.00,VWS V14.01,2013-07-21 14:30:00,
2013-07-21 10:34:00,84.1,78.0,30.14,SSE,152,4.0,6.0,82,0.00,,,0.00,,VWS V14.01,2013-07-21 14:34:00,
2013-07-21 10:39:00,84.4,77.9,30.14,South,177,1.0,6.0,81,0.00,,,0.00,,VWS V14.01,2013-07-21 14:39:00,
2013-07-21 10:44:00,84.8,78.3,30.14,SSW,200,3.0,6.0,81,0.00,,,0.00,,VWS V14.01,2013-07-21 14:44:00,
2013-07-21 10:45:00,83.7,78.7,30.13,SE,129,0.0,3.0,85,0.00,,,0.00,0.00,VWS V14.01,2013-07-21 14:45:00,
2013-07-21 10:49:00,84.5,77.7,30.14,South,184,2.0,6.0,80,0.00,,,0.00,,VWS V14.01,2013-07-21 14:49:00,
2013-07-21 10:54:00,84.6,77.8,30.14,South,183,2.0,6.0,80,0.00,,,0.00,,VWS V14.01,2013-07-21 14:54:00,
2013-07-21 10:59:00,84.8,77.9,30.14,South,190,1.0,6.0,80,0.00,,,0.00,,VWS V14.01,2013-07-21 14:59:00,
2013-07-21 11:00:00,84.2,78.5,30.13,South,170,3.0,3.0,83,0.00,,,0.00,0.00,VWS V14.01,2013-07-21 15:00:00,
2013-07-21 11:04:00,85.1,78.2,30.14,South,186,3.0,4.0,80,0.00,,,0.00,,VWS V14.01,2013-07-21 15:04:00,
2013-07-21 11:09:00,85.4,78.2,30.14,SE,144,5.0,5.0,79,0.00,,,0.00,,VWS V14.01,2013-07-21 15:09:00,
2013-07-21 11:14:00,85.9,78.2,30.14,SE,135,0.0,5.0,78,0.00,,,0.00,,VWS V14.01,2013-07-21 15:14:00,
2013-07-21 11:15:00,84.5,78.8,30.14,SSE,155,3.0,5.0,83,0.00,,,0.00,0.00,VWS V14.01,2013-07-21 15:15:00,
2013-07-21 11:19:00,86.6,78.1,30.14,SSE,163,2.0,4.0,76,0.00,,,0.00,,VWS V14.01,2013-07-21 15:19:00,
2013-07-21 11:24:00,87.3,78.4,30.14,SE,126,3.0,4.0,75,0.00,,,0.00,,VWS V14.01,2013-07-21 15:24:00,
2013-07-21 11:29:00,86.9,78.0,30.14,South,178,2.0,7.0,75,0.00,,,0.00,,VWS V14.01,2013-07-21 15:29:00,
2013-07-21 11:30:00,84.2,78.1,30.14,South,171,5.0,5.0,82,0.00,,,0.00,0.00,VWS V14.01,2013-07-21 15:30:00,
2013-07-21 11:34:00,86.8,77.9,30.14,South,186,4.0,4.0,75,0.00,,,0.00,,VWS V14.01,2013-07-21 15:34:00,
2013-07-21 11:39:00,86.5,78.0,30.14,SSE,160,1.0,6.0,76,0.00,,,0.00,,VWS V14.01,2013-07-21 15:39:00,
2013-07-21 11:44:00,87.9,77.8,30.14,East,97,0.0,6.0,72,0.00,,,0.00,,VWS V14.01,2013-07-21 15:44:00,
2013-07-21 11:45:00,84.8,78.3,30.14,South,191,4.0,6.0,81,0.00,,,0.00,0.00,VWS V14.01,2013-07-21 15:45:00,
2013-07-21 11:49:00,88.8,77.8,30.14,SSE,148,1.0,3.0,70,0.00,,,0.00,,VWS V14.01,2013-07-21 15:49:00,
2013-07-21 11:54:00,88.7,77.2,30.14,SSE,165,3.0,5.0,69,0.00,,,0.00,,VWS V14.01,2013-07-21 15:54:00,
2013-07-21 11:59:00,88.9,77.4,30.14,SE,134,7.0,7.0,69,0.00,,,0.00,,VWS V14.01,2013-07-21 15:59:00,
2013-07-21 12:00:00,84.8,77.9,30.14,South,190,3.0,6.0,80,0.00,,,0.00,0.00,VWS V14.01,2013-07-21 16:00:00,
2013-07-21 12:04:00,88.7,77.2,30.14,SSE,147,3.0,5.0,69,0.00,,,0.00,,VWS V14.01,2013-07-21 16:04:00,
2013-07-21 12:09:00,88.2,77.2,30.14,SE,144,4.0,8.0,70,0.00,,,0.00,,VWS V14.01,2013-07-21 16:09:00,
2013-07-21 12:14:00,88.3,76.8,30.14,SSE,155,2.0,8.0,69,0.00,,,0.00,,VWS V14.01,2013-07-21 16:14:00,
2013-07-21 12:15:00,86.1,78.1,30.14,SE,135,0.0,5.0,77,0.00,,,0.00,0.00,VWS V14.01,2013-07-21 16:15:00,
2013-07-21 12:19:00,88.4,76.9,30.14,SE,134,0.0,5.0,69,0.00,,,0.00,,VWS V14.01,2013-07-21 16:19:00,
2013-07-21 12:24:00,88.6,77.6,30.14,South,174,3.0,6.0,70,0.00,,,0.00,,VWS V14.01,2013-07-21 16:24:00,
2013-07-21 12:29:00,87.9,77.3,30.14,South,175,3.0,6.0,71,0.00,,,0.00,,VWS V14.01,2013-07-21 16:29:00,
2013-07-21 12:30:00,86.8,77.9,30.14,South,178,0.0,7.0,75,0.00,,,0.00,0.00,VWS V14.01,2013-07-21 16:30:00,
2013-07-21 12:34:00,88.0,76.6,30.13,South,184,4.0,5.0,69,0.00,,,0.00,,VWS V14.01,2013-07-21 16:34:00,
2013-07-21 12:39:00,87.7,76.7,30.13,ESE,121,2.0,7.0,70,0.00,,,0.00,,VWS V14.01,2013-07-21 16:39:00,
2013-07-21 12:44:00,88.1,77.9,30.13,SE,132,0.0,7.0,72,0.00,,,0.00,,VWS V14.01,2013-07-21 16:44:00,
2013-07-21 12:45:00,88.1,77.9,30.14,ESE,117,2.0,6.0,72,0.00,,,0.00,0.00,VWS V14.01,2013-07-21 16:45:00,
2013-07-21 12:49:00,89.7,78.2,30.13,ESE,111,2.0,5.0,69,0.00,,,0.00,,VWS V14.01,2013-07-21 16:49:00,
2013-07-21 12:54:00,90.3,77.9,30.13,ESE,121,2.0,5.0,67,0.00,,,0.00,,VWS V14.01,2013-07-21 16:54:00,
2013-07-21 12:59:00,89.5,78.0,30.13,ESE,116,1.0,5.0,69,0.00,,,0.00,,VWS V14.01,2013-07-21 16:59:00,
2013-07-21 13:00:00,88.8,77.3,30.14,SE,137,1.0,7.0,69,0.00,,,0.00,0.00,VWS V14.01,2013-07-21 17:00:00,
2013-07-21 13:04:00,89.5,78.0,30.13,ESE,102,0.0,5.0,69,0.00,,,0.00,,VWS V14.01,2013-07-21 17:04:00,
2013-07-21 13:09:00,90.2,78.2,30.12,SE,129,0.0,5.0,68,0.00,,,0.00,,VWS V14.01,2013-07-21 17:09:00,
2013-07-21 13:14:00,90.9,78.0,30.12,ESE,103,1.0,5.0,66,0.00,,,0.00,,VWS V14.01,2013-07-21 17:14:00,
2013-07-21 13:15:00,88.2,76.8,30.14,South,173,2.0,8.0,69,0.00,,,0.00,0.00,VWS V14.01,2013-07-21 17:15:00,
2013-07-21 13:19:00,90.1,77.7,30.12,ESE,123,1.0,4.0,67,0.00,,,0.00,,VWS V14.01,2013-07-21 17:19:00,
2013-07-21 13:24:00,89.7,77.3,30.12,SE,139,6.0,6.0,67,0.00,,,0.00,,VWS V14.01,2013-07-21 17:24:00,
2013-07-21 13:29:00,90.1,76.8,30.12,SSE,159,3.0,8.0,65,0.00,,,0.00,,VWS V14.01,2013-07-21 17:29:00,
2013-07-21 13:30:00,87.8,77.2,30.14,SSE,160,3.0,6.0,71,0.00,,,0.00,0.00,VWS V14.01,2013-07-21 17:30:00,
2013-07-21 13:34:00,90.2,77.3,30.12,SSE,153,1.0,5.0,66,0.00,,,0.00,,VWS V14.01,2013-07-21 17:34:00,
2013-07-21 13:39:00,91.8,77.4,30.12,ENE,67,1.0,5.0,63,0.00,,,0.00,,VWS V14.01,2013-07-21 17:39:00,
2013-07-21 13:44:00,92.2,76.8,30.11,SSE,159,6.0,6.0,61,0.00,,,0.00,,VWS V14.01,2013-07-21 17:44:00,
2013-07-21 13:45:00,88.4,77.8,30.13,SE,132,0.0,7.0,71,0.00,,,0.00,0.00,VWS V14.01,2013-07-21 17:45:00,
2013-07-21 13:49:00,92.1,75.7,30.11,SE,142,1.0,5.0,59,0.00,,,0.00,,VWS V14.01,2013-07-21 17:49:00,
2013-07-21 13:54:00,91.4,77.0,30.11,SSE,159,1.0,8.0,63,0.00,,,0.00,,VWS V14.01,2013-07-21 17:54:00,
2013-07-21 13:59:00,92.2,77.8,30.11,SE,130,0.0,8.0,63,0.00,,,0.00,,VWS V14.01,2013-07-21 17:59:00,
2013-07-21 14:00:00,89.6,78.5,30.13,SSE,163,4.0,5.0,70,0.00,,,0.00,0.00,VWS V14.01,2013-07-21 18:00:00,
2013-07-21 14:04:00,92.8,77.4,30.11,East,95,2.0,5.0,61,0.00,,,0.00,,VWS V14.01,2013-07-21 18:04:00,
2013-07-21 14:09:00,91.8,76.9,30.11,ESE,122,0.0,5.0,62,0.00,,,0.00,,VWS V14.01,2013-07-21 18:09:00,
2013-07-21 14:14:00,93.4,77.4,30.11,South,171,2.0,7.0,60,0.00,,,0.00,,VWS V14.01,2013-07-21 18:14:00,
2013-07-21 14:15:00,90.8,77.9,30.12,SE,130,1.0,5.0,66,0.00,,,0.00,0.00,VWS V14.01,2013-07-21 18:15:00,
2013-07-21 14:19:00,92.7,77.3,30.11,SE,125,0.0,5.0,61,0.00,,,0.00,,VWS V14.01,2013-07-21 18:19:00,
2013-07-21 14:24:00,92.7,77.3,30.11,ESE,117,0.0,5.0,61,0.00,,,0.00,,VWS V14.01,2013-07-21 18:24:00,
2013-07-21 14:29:00,92.4,77.0,30.11,NE,35,2.0,5.0,61,0.00,,,0.00,,VWS V14.01,2013-07-21 18:29:00,
2013-07-21 14:30:00,90.2,76.4,30.12,SSE,161,4.0,8.0,64,0.00,,,0.00,0.00,VWS V14.01,2013-07-21 18:30:00,
2013-07-21 14:34:00,92.6,77.2,30.11,SE,146,3.0,3.0,61,0.00,,,0.00,,VWS V14.01,2013-07-21 18:34:00,
2013-07-21 14:39:00,92.7,76.8,30.10,ESE,117,1.0,7.0,60,0.00,,,0.00,,VWS V14.01,2013-07-21 18:39:00,
2013-07-21 14:44:00,92.2,76.8,30.10,SSE,147,2.0,7.0,61,0.00,,,0.00,,VWS V14.01,2013-07-21 18:44:00,
2013-07-21 14:45:00,92.0,76.6,30.11,ESE,105,3.0,6.0,61,0.00,,,0.00,0.00,VWS V14.01,2013-07-21 18:45:00,
2013-07-21 14:49:00,91.3,76.5,30.10,ESE,121,0.0,8.0,62,0.00,,,0.00,,VWS V14.01,2013-07-21 18:49:00,
2013-07-21 14:54:00,90.5,76.7,30.10,SE,131,3.0,15.0,64,0.00,,,0.00,,VWS V14.01,2013-07-21 18:54:00,
2013-07-21 14:59:00,90.5,77.1,30.09,SE,128,2.0,15.0,65,0.00,,,0.00,,VWS V14.01,2013-07-21 18:59:00,
2013-07-21 15:00:00,92.5,78.1,30.11,SSE,156,3.0,8.0,63,0.00,,,0.00,0.00,VWS V14.01,2013-07-21 19:00:00,
2013-07-21 15:04:00,91.6,76.7,30.09,East,94,2.0,8.0,62,0.00,,,0.00,,VWS V14.01,2013-07-21 19:04:00,
2013-07-21 15:09:00,91.9,77.0,30.09,South,186,0.0,8.0,62,0.00,,,0.00,,VWS V14.01,2013-07-21 19:09:00,
2013-07-21 15:14:00,91.4,77.5,30.09,SE,134,5.0,8.0,64,0.00,,,0.00,,VWS V14.01,2013-07-21 19:14:00,
2013-07-21 15:15:00,93.2,76.8,30.11,East,97,3.0,7.0,59,0.00,,,0.00,0.00,VWS V14.01,2013-07-21 19:15:00,
2013-07-21 15:19:00,91.4,76.6,30.08,East,93,2.0,8.0,62,0.00,,,0.00,,VWS V14.01,2013-07-21 19:19:00,
2013-07-21 15:24:00,92.3,77.9,30.08,East,101,7.0,8.0,63,0.00,,,0.00,,VWS V14.01,2013-07-21 19:24:00,
2013-07-21 15:29:00,91.1,76.3,30.08,SSW,193,6.0,11.0,62,0.00,,,0.00,,VWS V14.01,2013-07-21 19:29:00,
2013-07-21 15:30:00,92.4,77.0,30.11,East,98,1.0,5.0,61,0.00,,,0.00,0.00,VWS V14.01,2013-07-21 19:30:00,
2013-07-21 15:34:00,90.2,76.8,30.08,East,98,2.0,10.0,65,0.00,,,0.00,,VWS V14.01,2013-07-21 19:34:00,
2013-07-21 15:39:00,91.9,78.0,30.08,East,91,1.0,10.0,64,0.00,,,0.00,,VWS V14.01,2013-07-21 19:39:00,
2013-07-21 15:44:00,91.3,77.4,30.08,SSE,149,1.0,10.0,64,0.00,,,0.00,,VWS V14.01,2013-07-21 19:44:00,
2013-07-21 15:45:00,92.0,76.6,30.10,ESE,108,3.0,8.0,61,0.00,,,0.00,0.00,VWS V14.01,2013-07-21 19:45:00,
2013-07-21 15:49:00,91.5,77.6,30.08,SE,133,4.0,8.0,64,0.00,,,0.00,,VWS V14.01,2013-07-21 19:49:00,
2013-07-21 15:54:00,91.0,77.1,30.08,NE,46,1.0,10.0,64,0.00,,,0.00,,VWS V14.01,2013-07-21 19:54:00,
2013-07-21 15:59:00,91.4,77.5,30.08,East,91,5.0,10.0,64,0.00,,,0.00,,VWS V14.01,2013-07-21 19:59:00,
2013-07-21 16:00:00,90.5,77.1,30.09,SSE,153,3.0,15.0,65,0.00,,,0.00,0.00,VWS V14.01,2013-07-21 20:00:00,
2013-07-21 16:04:00,91.6,77.7,30.08,ESE,103,2.0,3.0,64,0.00,,,0.00,,VWS V14.01,2013-07-21 20:04:00,
2013-07-21 16:09:00,91.4,77.5,30.08,East,81,3.0,7.0,64,0.00,,,0.00,,VWS V14.01,2013-07-21 20:09:00,
2013-07-21 16:14:00,90.8,77.4,30.08,ESE,113,3.0,8.0,65,0.00,,,0.00,,VWS V14.01,2013-07-21 20:14:00,
2013-07-21 16:15:00,91.6,77.2,30.09,ESE,111,3.0,8.0,63,0.00,,,0.00,0.00,VWS V14.01,2013-07-21 20:15:00,
2013-07-21 16:19:00,89.9,77.0,30.07,East,81,2.0,7.0,66,0.00,,,0.00,,VWS V14.01,2013-07-21 20:19:00,
2013-07-21 16:24:00,89.4,77.0,30.07,East,86,5.0,7.0,67,0.00,,,0.00,,VWS V14.01,2013-07-21 20:24:00,
2013-07-21 16:29:00,88.8,76.4,30.07,East,91,0.0,9.0,67,0.00,,,0.00,,VWS V14.01,2013-07-21 20:29:00,
2013-07-21 16:30:00,91.0,76.7,30.08,ESE,123,4.0,11.0,63,0.00,,,0.00,0.00,VWS V14.01,2013-07-21 20:30:00,
2013-07-21 16:34:00,88.3,76.8,30.08,SE,143,2.0,7.0,69,0.00,,,0.00,,VWS V14.01,2013-07-21 20:34:00,
2013-07-21 16:39:00,88.2,76.8,30.08,SSE,160,2.0,7.0,69,0.00,,,0.00,,VWS V14.01,2013-07-21 20:39:00,
2013-07-21 16:44:00,87.8,76.8,30.08,ENE,65,1.0,7.0,70,0.00,,,0.00,,VWS V14.01,2013-07-21 20:44:00,
2013-07-21 16:45:00,91.2,77.3,30.08,SSE,165,6.0,10.0,64,0.00,,,0.00,0.00,VWS V14.01,2013-07-21 20:45:00,
2013-07-21 16:49:00,87.6,77.0,30.07,SE,124,4.0,7.0,71,0.00,,,0.00,,VWS V14.01,2013-07-21 20:49:00,
2013-07-21 16:54:00,87.4,76.8,30.08,ESE,107,0.0,10.0,71,0.00,,,0.00,,VWS V14.01,2013-07-21 20:54:00,
2013-07-21 16:59:00,87.0,76.9,30.08,SSE,166,2.0,10.0,72,0.00,,,0.00,,VWS V14.01,2013-07-21 20:59:00,
2013-07-21 17:00:00,91.5,77.6,30.08,ENE,72,3.0,10.0,64,0.00,,,0.00,0.00,VWS V14.01,2013-07-21 21:00:00,
2013-07-21 17:04:00,86.5,76.8,30.08,East,83,1.0,8.0,73,0.00,,,0.00,,VWS V14.01,2013-07-21 21:04:00,
2013-07-21 17:08:00,86.3,76.6,30.08,ESE,122,0.0,8.0,73,0.00,,,0.00,,VWS V14.01,2013-07-21 21:08:00,
2013-07-21 17:13:00,86.2,76.9,30.08,ESE,104,0.0,8.0,74,0.00,,,0.00,,VWS V14.01,2013-07-21 21:13:00,
2013-07-21 17:15:00,90.6,77.2,30.07,ESE,107,5.0,8.0,65,0.00,,,0.00,0.00,VWS V14.01,2013-07-21 21:15:00,
2013-07-21 17:19:00,86.1,76.8,30.08,ESE,115,2.0,7.0,74,0.00,,,0.00,,VWS V14.01,2013-07-21 21:19:00,
2013-07-21 17:24:00,85.8,76.6,30.07,SE,128,5.0,8.0,74,0.00,,,0.00,,VWS V14.01,2013-07-21 21:24:00,
2013-07-21 17:29:00,85.6,76.8,30.07,SE,125,1.0,8.0,75,0.00,,,0.00,,VWS V14.01,2013-07-21 21:29:00,
2013-07-21 17:30:00,88.8,76.4,30.07,SE,138,4.0,9.0,67,0.00,,,0.00,0.00,VWS V14.01,2013-07-21 21:30:00,
2013-07-21 17:33:00,85.4,76.6,30.07,East,97,2.0,7.0,75,0.00,,,0.00,,VWS V14.01,2013-07-21 21:33:00,
2013-07-21 17:38:00,85.3,76.9,30.06,East,82,1.0,9.0,76,0.00,,,0.00,,VWS V14.01,2013-07-21 21:38:00,
2013-07-21 17:44:00,85.3,77.3,30.06,ESE,122,4.0,9.0,77,0.00,,,0.00,,VWS V14.01,2013-07-21 21:44:00,
2013-07-21 17:45:00,87.7,76.7,30.08,East,84,3.0,7.0,70,0.00,,,0.00,0.00,VWS V14.01,2013-07-21 21:45:00,
2013-07-21 17:49:00,85.1,77.1,30.06,ENE,66,3.0,9.0,77,0.00,,,0.00,,VWS V14.01,2013-07-21 21:49:00,
2013-07-21 17:54:00,85.1,77.1,30.06,East,96,1.0,9.0,77,0.00,,,0.00,,VWS V14.01,2013-07-21 21:54:00,
2013-07-21 17:59:00,85.0,77.4,30.06,ESE,123,0.0,9.0,78,0.00,,,0.00,,VWS V14.01,2013-07-21 21:59:00,
2013-07-21 18:00:00,86.9,76.8,30.08,ENE,65,1.0,10.0,72,0.00,,,0.00,0.00,VWS V14.01,2013-07-21 22:00:00,
2013-07-21 18:03:00,85.0,77.4,30.06,East,88,7.0,7.0,78,0.00,,,0.00,,VWS V14.01,2013-07-21 22:03:00,
2013-07-21 18:08:00,84.8,77.2,30.06,East,90,1.0,8.0,78,0.00,,,0.00,,VWS V14.01,2013-07-21 22:08:00,
2013-07-21 18:13:00,84.7,77.5,30.06,ESE,119,7.0,8.0,79,0.00,,,0.00,,VWS V14.01,2013-07-21 22:13:00,
2013-07-21 18:15:00,86.2,76.9,30.08,East,100,3.0,8.0,74,0.00,,,0.00,0.00,VWS V14.01,2013-07-21 22:15:00,
2013-07-21 18:18:00,84.5,77.3,30.06,SE,128,1.0,6.0,79,0.00,,,0.00,,VWS V14.01,2013-07-21 22:18:00,
2013-07-21 18:23:00,84.3,77.1,30.06,SE,128,3.0,6.0,79,0.00,,,0.00,,VWS V14.01,2013-07-21 22:23:00,
2013-07-21 18:28:00,84.1,76.9,30.06,SE,131,3.0,7.0,79,0.00,,,0.00,,VWS V14.01,2013-07-21 22:28:00,
2013-07-21 18:30:00,85.6,76.8,30.07,SE,126,3.0,8.0,75,0.00,,,0.00,0.00,VWS V14.01,2013-07-21 22:30:00,
2013-07-21 18:33:00,83.9,76.7,30.06,SE,134,1.0,9.0,79,0.00,,,0.00,,VWS V14.01,2013-07-21 22:33:00,
2013-07-21 18:38:00,83.9,76.7,30.06,SE,127,5.0,12.0,79,0.00,,,0.00,,VWS V14.01,2013-07-21 22:38:00,
2013-07-21 18:43:00,84.0,76.8,30.06,SSE,152,2.0,12.0,79,0.00,,,0.00,,VWS V14.01,2013-07-21 22:43:00,
2013-07-21 18:45:00,85.2,77.2,30.06,ESE,116,5.0,10.0,77,0.00,,,0.00,0.00,VWS V14.01,2013-07-21 22:45:00,
2013-07-21 18:48:00,84.1,76.9,30.06,East,99,6.0,7.0,79,0.00,,,0.00,,VWS V14.01,2013-07-21 22:48:00,
2013-07-21 18:53:00,84.2,77.4,30.06,ESE,111,5.0,7.0,80,0.00,,,0.00,,VWS V14.01,2013-07-21 22:53:00,
2013-07-21 18:58:00,84.2,77.7,30.06,SSE,148,3.0,7.0,81,0.00,,,0.00,,VWS V14.01,2013-07-21 22:58:00,
2013-07-21 19:00:00,85.0,77.4,30.06,East,88,1.0,9.0,78,0.00,,,0.00,0.00,VWS V14.01,2013-07-21 23:00:00,
2013-07-21 19:03:00,84.0,77.9,30.06,ESE,115,1.0,6.0,82,0.00,,,0.00,,VWS V14.01,2013-07-21 23:03:00,
2013-07-21 19:08:00,83.8,77.7,30.07,SE,126,0.0,6.0,82,0.00,,,0.00,,VWS V14.01,2013-07-21 23:08:00,
2013-07-21 19:13:00,83.8,78.1,30.07,SSE,161,0.0,6.0,83,0.00,,,0.00,,VWS V14.01,2013-07-21 23:13:00,
2013-07-21 19:15:00,84.7,77.1,30.06,SSE,163,4.0,8.0,78,0.00,,,0.00,0.00,VWS V14.01,2013-07-21 23:15:00,
2013-07-21 19:18:00,83.6,77.9,30.07,SE,136,1.0,7.0,83,0.00,,,0.00,,VWS V14.01,2013-07-21 23:18:00,
2013-07-21 19:19:00,83.6,77.9,30.07,East,85,1.0,7.0,83,0.00,,,0.00,,VWS V14.01,2013-07-21 23:19:00,
2013-07-21 19:24:00,83.2,77.5,30.08,East,101,0.0,7.0,83,0.00,,,0.00,,VWS V14.01,2013-07-21 23:24:00,
2013-07-21 19:29:00,83.0,77.3,30.08,SSE,157,1.0,7.0,83,0.00,,,0.00,,VWS V14.01,2013-07-21 23:29:00,
2013-07-21 19:30:00,84.1,76.9,30.06,SE,145,5.0,9.0,79,0.00,,,0.00,0.00,VWS V14.01,2013-07-21 23:30:00,
2013-07-21 19:34:00,82.9,77.2,30.08,SE,133,2.0,5.0,83,0.00,,,0.00,,VWS V14.01,2013-07-21 23:34:00,
2013-07-21 19:39:00,82.7,77.0,30.08,SE,142,2.0,7.0,83,0.00,,,0.00,,VWS V14.01,2013-07-21 23:39:00,
2013-07-21 19:44:00,82.7,77.4,30.09,South,175,5.0,7.0,84,0.00,,,0.00,,VWS V14.01,2013-07-21 23:44:00,
2013-07-21 19:45:00,84.0,76.8,30.06,ESE,112,1.0,12.0,79,0.00,,,0.00,0.00,VWS V14.01,2013-07-21 23:45:00,
2013-07-21 19:49:00,82.6,77.3,30.09,ESE,109,1.0,4.0,84,0.00,,,0.00,,VWS V14.01,2013-07-21 23:49:00,
2013-07-21 19:54:00,82.5,77.2,30.10,ESE,114,0.0,4.0,84,0.00,,,0.00,,VWS V14.01,2013-07-21 23:54:00,
2013-07-21 19:59:00,82.5,77.2,30.11,ENE,69,0.0,4.0,84,0.00,,,0.00,,VWS V14.01,2013-07-21 23:59:00,
2013-07-21 20:00:00,84.1,77.6,30.06,SE,129,0.0,7.0,81,0.00,,,0.00,0.00,VWS V14.01,2013-07-22 00:00:00,
2013-07-21 20:04:00,82.5,77.5,30.10,ENE,69,0.0,1.0,85,0.00,,,0.00,,VWS V14.01,2013-07-22 00:04:00,
2013-07-21 20:09:00,82.4,77.1,30.11,ENE,78,0.0,1.0,84,0.00,,,0.00,,VWS V14.01,2013-07-22 00:09:00,
2013-07-21 20:14:00,82.4,77.1,30.11,East,81,0.0,1.0,84,0.00,,,0.00,,VWS V14.01,2013-07-22 00:14:00,
2013-07-21 20:15:00,83.7,78.0,30.07,SE,136,0.0,6.0,83,0.00,,,0.00,0.00,VWS V14.01,2013-07-22 00:15:00,
2013-07-21 20:19:00,82.3,77.0,30.11,East,81,0.0,1.0,84,0.00,,,0.00,,VWS V14.01,2013-07-22 00:19:00,
2013-07-21 20:24:00,82.3,77.0,30.10,ESE,103,0.0,3.0,84,0.00,,,0.00,,VWS V14.01,2013-07-22 00:24:00,
2013-07-21 20:29:00,82.3,77.0,30.11,East,91,0.0,3.0,84,0.00,,,0.00,,VWS V14.01,2013-07-22 00:29:00,
2013-07-21 20:30:00,82.9,77.2,30.08,SSE,157,1.0,7.0,83,0.00,,,0.00,0.00,VWS V14.01,2013-07-22 00:30:00,
2013-07-21 20:45:00,82.6,77.3,30.09,SE,129,4.0,7.0,84,0.00,,,0.00,0.00,VWS V14.01,2013-07-22 00:45:00,
2013-07-21 21:00:00,82.5,77.2,30.11,ENE,69,0.0,4.0,84,0.00,,,0.00,0.00,VWS V14.01,2013-07-22 01:00:00,
2013-07-21 21:15:00,82.4,77.1,30.11,East,81,0.0,1.0,84,0.00,,,0.00,0.00,VWS V14.01,2013-07-22 01:15:00,
2013-07-21 21:30:00,82.3,77.0,30.11,East,91,0.0,3.0,84,0.00,,,0.00,0.00,VWS V14.01,2013-07-22 01:30:00,
2013-07-21 21:45:00,82.2,76.9,30.11,SE,135,0.0,3.0,84,0.00,,,0.00,0.00,VWS V14.01,2013-07-22 01:45:00,
2013-07-21 22:00:00,82.0,76.7,30.11,ENE,68,0.0,1.0,84,0.00,,,0.00,0.00,VWS V14.01,2013-07-22 02:00:00,
2013-07-21 22:15:00,81.9,76.6,30.12,ENE,68,0.0,2.0,84,0.00,,,0.00,0.00,VWS V14.01,2013-07-22 02:15:00,
2013-07-21 22:30:00,81.8,76.8,30.13,ENE,68,0.0,0.0,85,0.00,,,0.00,0.00,VWS V14.01,2013-07-22 02:30:00,
2013-07-21 22:45:00,81.8,76.5,30.13,ENE,68,0.0,1.0,84,0.00,,,0.00,0.00,VWS V14.01,2013-07-22 02:45:00,
2013-07-21 23:00:00,81.6,76.7,30.13,ENE,68,0.0,1.0,85,0.00,,,0.00,0.00,VWS V14.01,2013-07-22 03:00:00,
2013-07-21 23:15:00,81.9,77.3,30.14,ENE,68,1.0,3.0,86,0.00,,,0.00,0.00,VWS V14.01,2013-07-22 03:15:00,
2013-07-21 23:30:00,82.0,77.4,30.15,ENE,68,1.0,4.0,86,0.00,,,0.00,0.00,VWS V14.01,2013-07-22 03:30:00,
2013-07-21 23:45:00,81.9,77.3,30.15,NNE,22,1.0,4.0,86,0.00,,,0.00,0.00,VWS V14.01,2013-07-22 03:45:00,